x

Big Bay, Mi (bigm4) Weather Station

5:40am - Sun 23rd Nov 2014 All times are CST. -6 hours from GMT.

  • Wind
    7mph, 11mph gusts
  • Air Temp 38°f
  • Sea Pressure 1000.3mb
  • Big Bay, Mi
  • Big Bay, Mi

More Historic Weather Station data

Upgrade to MSW Pro to gain access to the past 30 days of data for over 8000 Wavebouys and Weather Stations around the globe.

Join Pro

Comparision Forecast

View Surf forecast
   
Sun 11/23 5:40am 7 11 mph 1000.3mb 38f
5:30am 8 15 mph 1000.3mb 38f
5:20am 6 14 mph 1000.3mb 38f
5:10am 9 15 mph 1000.3mb 38f
5:00am 7 13 mph 1000.3mb 37f
4:40am 3 8 mph 1000.3mb 37f
4:30am 5 7 mph 1000.3mb 36f
4:20am  -  5 mph 1000.7mb 35f
4:10am  -  5 mph 1000.7mb 35f
4:00am 2 5 mph 1000.7mb 35f
3:40am  -  5 mph 1001.7mb 35f
3:30am  -  3 mph 1001.7mb 34f
3:20am 1 5 mph 1002mb 34f
3:10am  -  mph 1002mb 33f
3:00am  -  1 mph 1002.4mb 33f
2:40am  -  mph 1002.4mb 32f
2:30am  -  mph 1002.7mb 33f
2:20am  -  mph 1002.7mb 33f
2:10am  -  3 mph 1003mb 35f
2:00am 1 6 mph 1003.4mb 35f
1:40am  -  3 mph 1003mb 34f
1:30am  -  mph 1003mb 33f
1:20am  -  mph 1003.4mb 33f
1:10am  -  mph 1003.4mb 33f
1:00am  -  1 mph 1003.4mb 32f
12:40am  -  mph 1003.4mb 32f
12:30am  -  mph 1003.7mb 33f
12:20am  -  mph 1003.7mb 32f
12:10am  -  mph 1004.1mb 33f
12:00am  -  mph 1004.4mb 33f
Sat 11/22 11:40pm  -  1 mph 1004.4mb 33f
11:30pm  -  2 mph 1004.4mb 34f
11:20pm  -  2 mph 1004.7mb 34f
11:10pm  -  5 mph 1004.7mb 33f
11:00pm  -  5 mph 1005.1mb 34f
10:40pm  -  3 mph 1005.1mb 34f
10:30pm  -  3 mph 1005.1mb 33f
10:20pm 3 7 mph 1005.1mb 34f
10:10pm 1 6 mph 1004.7mb 35f
10:00pm 1 7 mph 1005.1mb 35f
9:40pm 3 5 mph 1004.7mb 35f
9:30pm 2 5 mph 1004.4mb 35f
9:20pm  -  5 mph 1004.7mb 36f
9:10pm  -  3 mph 1005.1mb 36f
9:00pm  -  5 mph 1005.1mb 36f
8:40pm  -  3 mph 1005.1mb 36f
8:30pm  -  3 mph 1005.1mb 35f
8:20pm  -  2 mph 1005.1mb 35f
8:10pm  -  2 mph 1005.1mb 35f
8:00pm  -  1 mph 1005.4mb 35f
7:40pm  -  mph 1005.4mb 35f
7:30pm  -  3 mph 1005.4mb 35f
7:20pm  -  2 mph 1005.4mb 35f
7:10pm  -  mph 1005.1mb 35f
7:00pm  -  mph 1005.1mb 35f
6:40pm  -  3 mph 1005.1mb 37f
6:30pm  -  3 mph 1005.1mb 37f
6:20pm  -  mph 1005.1mb 37f
6:10pm  -  3 mph 1005.1mb 37f
6:00pm  -  2 mph 1005.1mb 37f
5:40pm  -  2 mph 1005.1mb 37f
5:30pm  -  5 mph 1005.1mb 37f
5:20pm  -  5 mph 1005.1mb 37f
5:10pm 1 3 mph 1005.1mb 37f
5:00pm  -  3 mph 1005.1mb 37f
4:40pm 1 6 mph 1005.1mb 35f
4:30pm  -  mph 1004.7mb 34f
4:20pm  -  2 mph 1004.7mb 35f
4:10pm  -  2 mph 1004.7mb 37f
4:00pm  -  7 mph 1004.7mb 38f
3:40pm 3 8 mph 1004.7mb 39f
3:30pm 6 8 mph 1004.7mb 39f
3:20pm  -  1 mph 1004.7mb 39f
3:10pm  -  2 mph 1004.4mb 40f
3:00pm  -  3 mph 1004.4mb 41f
2:40pm  -  2 mph 1004.1mb 46f
2:30pm  -  mph 1004.1mb 47f
2:20pm  -  5 mph 1004.1mb 43f
2:10pm 3 5 mph 1003.7mb 43f
2:00pm  -  3 mph 1004.1mb 44f
1:40pm 6 8 mph 1003.7mb 43f
1:30pm 5 8 mph 1003.7mb 41f
1:20pm 2 6 mph 1003.7mb 46f
1:10pm 3 7 mph 1003.7mb 44f
1:00pm 2 6 mph 1003.7mb 45f
12:40pm  -  7 mph 1003.7mb 42f
12:30pm 3 9 mph 1003.7mb 43f
12:20pm 1 9 mph 1003.7mb 43f
12:10pm 5 13 mph 1004.1mb 42f
12:00pm 5 11 mph 1004.1mb 43f
11:40am 3 8 mph 1004.4mb 42f
11:30am  -  9 mph 1004.4mb 43f
11:20am 5 11 mph 1004.4mb 41f
11:10am 6 11 mph 1004.7mb 41f
11:00am 5 9 mph 1004.7mb 41f
10:40am 2 6 mph 1005.1mb 41f
10:30am  -  10 mph 1005.1mb 40f
10:20am  -  6 mph 1005.1mb 40f
10:10am 2 7 mph 1005.4mb 40f
10:00am 3 10 mph 1005.4mb 39f
9:40am 1 7 mph 1005.4mb 39f
9:30am 8 10 mph 1005.4mb 38f
9:20am 5 8 mph 1005.4mb 38f
9:10am  -  8 mph 1005.4mb 37f
9:00am 3 9 mph 1005.4mb 36f
8:40am 3 7 mph 1005.4mb 34f
8:30am 3 5 mph 1005.4mb 31f
8:20am 3 6 mph 1005.4mb 33f
8:10am  -  3 mph 1005.4mb 34f
8:00am 3 7 mph 1005.4mb 34f
7:40am 3 9 mph 1005.4mb 35f
7:30am 5 9 mph 1005.4mb 35f
7:20am 3 6 mph 1005.4mb 34f
7:10am 5 10 mph 1005.4mb 35f
7:00am 2 9 mph 1005.4mb 34f
6:40am 2 7 mph 1005.4mb 35f
6:30am 3 8 mph 1005.4mb 35f
6:20am 2 8 mph 1005.4mb 35f
6:10am 5 8 mph 1005.4mb 35f
6:00am 2 9 mph 1005.4mb 35f
5:50am 3 9 mph 1005.4mb 34f
5:40am 7 13 mph 1005.4mb 34f
5:30am 6 11 mph 1005.4mb 34f
5:20am 3 8 mph 1005.8mb 34f
5:10am 3 6 mph 1005.8mb 34f
5:00am 5 8 mph 1005.8mb 34f
4:50am 2 9 mph 1005.8mb 34f
4:40am 2 8 mph 1005.8mb 34f
4:30am 3 8 mph 1006.1mb 34f
4:20am 3 7 mph 1006.1mb 33f
4:10am 5 11 mph 1005.8mb 34f
4:00am 5 9 mph 1005.8mb 33f
3:50am 2 8 mph 1006.1mb 33f
3:40am 2 7 mph 1006.1mb 33f
3:30am 3 8 mph 1006.4mb 33f
3:20am 5 8 mph 1006.1mb 33f
3:10am 5 9 mph 1006.4mb 33f
3:00am 5 11 mph 1006.4mb 33f
2:50am 5 8 mph 1006.4mb 33f
2:40am 5 11 mph 1006.8mb 33f
2:30am  -  8 mph 1006.8mb 33f
2:20am 7 11 mph 1006.8mb 33f
2:10am 2 10 mph 1006.8mb 33f
2:00am 5 9 mph 1006.8mb 33f
1:50am 8 13 mph 1006.4mb 33f
1:40am 6 14 mph 1006.8mb 33f
1:30am 5 15 mph 1006.8mb 33f
1:20am 8 20 mph 1006.8mb 33f
1:10am 3 15 mph 1007.1mb 33f
1:00am 7 15 mph 1007.1mb 33f
12:50am 8 15 mph 1007.5mb 33f
12:40am 7 11 mph 1007.5mb 32f
12:30am 3 9 mph 1007.8mb 31f
12:20am 3 11 mph 1007.8mb 31f
12:10am 6 17 mph 1007.5mb 31f
12:00am 6 15 mph 1007.5mb 31f
Fri 11/21 11:50pm 8 16 mph 1007.5mb 31f
11:40pm 7 18 mph 1007.8mb 31f
11:30pm 8 13 mph 1007.8mb 31f
11:20pm 6 17 mph 1007.8mb 31f
11:10pm 5 15 mph 1007.8mb 30f
11:00pm 11 28 mph 1007.5mb 30f
10:50pm 7 15 mph 1007.5mb 29f
10:40pm 5 10 mph 1007.5mb 29f
10:30pm 2 15 mph 1007.5mb 29f
10:20pm 8 16 mph 1007.8mb 29f
10:10pm 8 24 mph 1007.8mb 29f
10:00pm 6 24 mph 1008.1mb 29f
9:50pm 7 25 mph 1008.1mb 29f
9:42pm 11 24 mph 1008.1mb 30f
9:40pm 15 23 mph 1008.5mb 30f
9:30pm 7 23 mph 1008.5mb 29f
9:20pm 9 29 mph 1008.5mb 29f
9:10pm 14 33 mph 1008.1mb 29f
9:00pm 15 26 mph 1008.1mb 29f
8:50pm 9 28 mph 1008.5mb 28f
8:42pm 9
mph
1008.8mb 28f
8:40pm 8 30 mph 1008.8mb 28f
8:30pm 14 24 mph 1008.8mb 28f
8:20pm 13 30 mph 1008.8mb 28f
8:13pm 9 29 mph 1009.1mb 28f
8:10pm 10 28 mph 1009.1mb 28f
8:00pm 15 30 mph 1008.8mb 28f
7:50pm 15 31 mph 1009.1mb 28f
7:40pm 15 29 mph 1009.5mb 27f
7:30pm 8 33 mph 1009.5mb 27f
7:20pm 15 30 mph 1009.8mb 27f
7:11pm 11 30 mph 1009.8mb 26f
7:10pm 11 26 mph 1010.2mb 26f
7:00pm 11 26 mph 1010.5mb 26f
6:50pm 13 25 mph 1010.5mb 26f
6:40pm 9 22 mph 1010.8mb 26f
6:30pm 11 24 mph 1011.2mb 26f
6:20pm 15 30 mph 1011.2mb 26f
6:10pm 14 32 mph 1011.2mb 27f
6:00pm 14 32 mph 1011.2mb 27f
5:50pm 14 29 mph 1011.2mb 27f
5:40pm 11 30 mph 1011.5mb 27f
5:30pm 11 22 mph 1011.9mb 27f
5:20pm 7 23 mph 1012.5mb 27f
5:10pm 6 20 mph 1012.5mb 27f
5:00pm 11 20 mph 1012.9mb 27f
4:50pm 8 22 mph 1012.5mb 28f
4:40pm 6 21 mph 1013.5mb 28f
4:30pm 11 20 mph 1013.5mb 28f
4:20pm 3 14 mph 1013.9mb 27f
4:10pm 6 14 mph 1014.2mb 27f
4:00pm 7 11 mph 1014.6mb 27f
3:50pm 3 11 mph 1014.6mb 26f
3:40pm 3 16 mph 1014.6mb 26f
3:30pm 2 13 mph 1014.9mb 25f
3:20pm 5 11 mph 1015.2mb 25f
3:10pm 6 8 mph 1015.2mb 25f
3:00pm 5 9 mph 1015.9mb 25f
2:50pm 5 13 mph 1015.9mb 25f
2:40pm 6 11 mph 1015.9mb 25f
2:30pm  -  7 mph 1016.3mb 25f
2:20pm 6 11 mph 1016.3mb 25f
2:10pm 2 11 mph 1016.3mb 25f
2:00pm 7 15 mph 1016.6mb 24f
1:50pm 7 13 mph 1016.6mb 24f
1:40pm 6 10 mph 1016.9mb 24f
1:30pm 8 13 mph 1017.3mb 23f
1:20pm 7 16 mph 1017.3mb 23f
1:10pm 3 7 mph 1017.6mb 23f
1:00pm 6 9 mph 1017.9mb 23f
12:50pm 6 13 mph 1018.3mb 23f
12:40pm 7 16 mph 1018.6mb 22f
12:30pm 6 14 mph 1018.6mb 22f
12:20pm 5 11 mph 1019mb 22f
12:10pm 7 10 mph 1019mb 22f
12:00pm 5 10 mph 1019.3mb 22f
11:50am 6 7 mph 1019.3mb 22f
11:40am 6 8 mph 1019.3mb 21f
11:30am 5 11 mph 1019.6mb 21f
11:20am 3 8 mph 1020mb 20f
11:10am 5 14 mph 1020mb 20f
11:00am 5 13 mph 1020.3mb 20f
10:40am 3 9 mph 1021mb 20f
10:30am 6 11 mph 1021.3mb 19f
10:20am 6 14 mph 1021.3mb 19f
10:10am 8 10 mph 1021.3mb 19f
10:00am 2 7 mph 1021.7mb 18f
9:50am 3 8 mph 1021.3mb 17f
9:40am 5 8 mph 1021.7mb 17f
9:30am 5 7 mph 1021.7mb 16f
9:20am 5 8 mph 1021.7mb 15f
9:10am 2 8 mph 1022mb 15f
9:00am 6 9 mph 1022mb 15f
8:50am 3 10 mph 1022mb 14f
8:40am 3 7 mph 1022mb 14f
8:30am 3 7 mph 1022.4mb 14f
8:20am 2 3 mph 1022.7mb 14f
8:10am 2 6 mph 1022.7mb 14f
8:00am 1 7 mph 1022.7mb 14f
7:50am 3 11 mph 1022.7mb 14f
7:40am 5 10 mph 1022.4mb 13f
7:30am 8 11 mph 1022.4mb 13f
7:20am 6 11 mph 1022mb 13f
7:10am 7 11 mph 1022mb 13f
7:00am 5 11 mph 1022.4mb 13f
6:50am 6 11 mph 1022mb 13f
6:40am 5 8 mph 1022mb 13f
6:30am 3 9 mph 1022.4mb 13f
6:20am 5 10 mph 1022.4mb 13f
6:10am 5 9 mph 1022.4mb 13f
6:00am 5 8 mph 1022.4mb 14f
5:50am 6 11 mph 1022.4mb 14f
5:40am 7 13 mph 1022mb 14f
5:30am 5 8 mph 1022mb 14f
5:20am 3 7 mph 1021.7mb 13f
5:10am 6 9 mph 1021.7mb 14f
5:00am 2 9 mph 1021.3mb 14f
4:50am 5 9 mph 1021.3mb 14f
4:40am 3 7 mph 1021.3mb 14f
4:30am 3 7 mph 1021.3mb 14f
4:20am 2 5 mph 1021.3mb 15f
4:10am 2 7 mph 1021.3mb 15f
4:00am 3 6 mph 1021.3mb 15f
3:50am 5 8 mph 1021mb 16f
3:40am 2 8 mph 1021mb 16f
3:30am 5 9 mph 1021mb 16f
3:20am 3 6 mph 1021mb 15f
3:10am 3 8 mph 1021mb 15f
3:00am 2 5 mph 1021mb 15f
2:50am 3 6 mph 1020.7mb 15f
2:40am 2 7 mph 1021mb 16f
2:30am 2 6 mph 1020.7mb 16f
2:20am 3 6 mph 1020.7mb 16f
2:10am 3 6 mph 1020.7mb 16f
2:00am 3 6 mph 1020.3mb 16f
1:50am 3 7 mph 1020.3mb 16f
1:40am 3 7 mph 1020.3mb 16f
1:30am 2 7 mph 1020mb 16f
1:20am 3 8 mph 1020mb 16f
1:10am 6 9 mph 1020mb 16f
1:00am 2 7 mph 1020mb 16f
12:50am 5 8 mph 1020mb 16f
12:40am 5 7 mph 1019.6mb 17f
12:30am 3 8 mph 1019.6mb 18f
12:20am 5 8 mph 1019.6mb 18f
12:10am 5 15 mph 1019.3mb 18f
12:00am 7 13 mph 1019.3mb 18f
Thu 11/20 11:50pm 6 14 mph 1019.3mb 18f
11:40pm 2 8 mph 1019.3mb 17f
11:30pm 3 7 mph 1019mb 17f
11:20pm 5 9 mph 1019mb 17f
11:10pm 5 10 mph 1019mb 17f
11:00pm 7 11 mph 1018.6mb 17f
10:50pm 2 14 mph 1018.6mb 16f
10:40pm 8 14 mph 1018.3mb 16f
10:30pm 7 13 mph 1018.3mb 16f
10:20pm 9 15 mph 1017.9mb 16f
10:10pm 8 13 mph 1017.9mb 16f
10:00pm 5 13 mph 1017.9mb 16f
9:50pm 7 16 mph 1017.9mb 16f
9:40pm 9 17 mph 1017.6mb 16f
9:30pm 8 20 mph 1017.6mb 16f
9:20pm 11 17 mph 1017.3mb 15f
9:10pm 3 8 mph 1017.3mb 14f
9:00pm 3 8 mph 1017.3mb 14f
8:50pm 6 10 mph 1017.3mb 13f
8:40pm 3 7 mph 1016.9mb 13f
8:30pm 5 9 mph 1016.9mb 13f
8:20pm 5 8 mph 1016.9mb 13f
8:10pm 5 10 mph 1016.9mb 13f
8:00pm 2 10 mph 1016.6mb 13f
7:50pm 6 9 mph 1016.6mb 12f
7:40pm 5 9 mph 1016.6mb 12f
7:30pm 5 8 mph 1016.6mb 12f
7:20pm 3 10 mph 1016.3mb 12f
7:10pm 3 11 mph 1016.3mb 12f
7:00pm 5 9 mph 1016.3mb 12f
6:50pm 7 11 mph 1016.3mb 12f
6:40pm 3 10 mph 1016.3mb 12f
6:30pm 5 13 mph 1015.9mb 12f
6:20pm 5 9 mph 1015.9mb 12f
6:10pm 2 9 mph 1015.9mb 12f
6:00pm 6 9 mph 1015.6mb 12f
5:50pm 6 10 mph 1015.6mb 12f
5:40pm 8 13 mph 1015.6mb 12f
5:30pm 7 11 mph 1015.2mb 12f
5:20pm 6 11 mph 1015.2mb 12f
5:10pm 6 15 mph 1014.9mb 12f
5:00pm 8 14 mph 1014.9mb 12f
4:50pm 3 14 mph 1014.9mb 12f
4:40pm 3 13 mph 1014.6mb 12f
4:30pm 5 14 mph 1014.6mb 13f
4:20pm 5 14 mph 1014.2mb 13f
4:10pm 3 14 mph 1014.2mb 13f
4:00pm 5 8 mph 1013.9mb 13f
3:50pm 3 11 mph 1013.9mb 13f
3:40pm 7 13 mph 1013.9mb 13f
3:30pm 8 14 mph 1013.5mb 13f
3:20pm 8 15 mph 1013.5mb 14f
3:10pm 6 11 mph 1013.2mb 14f
3:00pm 6 11 mph 1013.2mb 13f
2:50pm 10 16 mph 1012.9mb 14f
2:40pm 9 16 mph 1012.5mb 15f
2:30pm 5 16 mph 1012.5mb 16f
2:20pm 6 21 mph 1012.5mb 16f
2:10pm 6 15 mph 1012.2mb 16f
2:00pm 7 20 mph 1011.9mb 17f
1:50pm 13 18 mph 1011.5mb 17f
1:40pm 7 13 mph 1011.5mb 16f
1:30pm 5 15 mph 1011.5mb 15f
1:20pm 6 13 mph 1011.2mb 18f
1:10pm 7 15 mph 1011.2mb 17f
1:00pm 8 15 mph 1011.2mb 17f
12:50pm 7 15 mph 1010.8mb 17f
12:40pm 8 17 mph 1010.8mb 16f
12:30pm 7 16 mph 1010.5mb 17f
12:20pm 7 15 mph 1010.5mb 17f
12:10pm 9 20 mph 1010.5mb 17f
12:00pm 10 17 mph 1010.2mb 18f
11:50am 8 16 mph 1010.2mb 18f
11:40am 7 14 mph 1009.8mb 18f
11:30am 3 14 mph 1010.2mb 19f
11:20am 9 17 mph 1009.8mb 18f
11:10am 6 20 mph 1009.8mb 18f
11:00am 6 16 mph 1009.8mb 19f
10:50am 10 17 mph 1009.5mb 19f
10:40am 7 13 mph 1009.5mb 19f
10:30am 7 16 mph 1009.5mb 18f
10:20am 11 16 mph 1009.1mb 17f
10:10am 9 20 mph 1009.1mb 17f
10:00am 9 15 mph 1009.1mb 18f
9:50am 9 18 mph 1008.8mb 17f
9:40am 10 17 mph 1008.8mb 17f
9:30am 7 17 mph 1008.8mb 17f
9:20am 6 16 mph 1008.5mb 17f
9:10am 10 17 mph 1008.5mb 17f
9:00am 6 16 mph 1008.1mb 17f
8:50am 8 15 mph 1008.1mb 17f
8:40am 8 17 mph 1007.8mb 17f
8:30am 9 15 mph 1007.8mb 17f
8:20am 6 13 mph 1007.8mb 17f
8:10am 5 16 mph 1007.5mb 17f
8:00am 7 15 mph 1007.5mb 17f
7:50am 7 11 mph 1007.5mb 17f
7:40am 11 17 mph 1007.1mb 17f
7:30am 10 21 mph 1007.1mb 17f
7:20am 6 17 mph 1006.8mb 17f
7:10am 6 14 mph 1006.8mb 17f
7:00am 6 16 mph 1006.8mb 17f
6:50am 8 20 mph 1006.4mb 17f
6:40am 5 16 mph 1006.4mb 17f
6:30am 7 18 mph 1006.1mb 17f
6:20am 10 20 mph 1006.1mb 17f
6:10am 9 20 mph 1006.1mb 18f
6:00am 8 23 mph 1005.8mb 18f
5:50am 10 20 mph 1005.8mb 17f
5:40am 7 15 mph 1005.8mb 18f
5:30am 10 17 mph 1005.4mb 18f
5:20am 6 14 mph 1005.4mb 18f
5:10am 8 22 mph 1005.4mb 18f
5:00am 10 17 mph 1005.1mb 18f
4:50am 8 21 mph 1005.4mb 18f
4:40am 7 21 mph 1005.1mb 17f
4:30am 11 17 mph 1005.1mb 17f
4:20am 9 17 mph 1005.1mb 17f
4:10am 9 14 mph 1004.7mb 17f
4:00am 9 20 mph 1004.7mb 17f
3:50am 9 16 mph 1004.7mb 18f
3:40am 10 18 mph 1004.4mb 18f
3:30am 7 15 mph 1004.7mb 18f
3:20am 7 17 mph 1004.4mb 18f
3:10am 6 13 mph 1004.4mb 18f
3:00am 7 13 mph 1004.4mb 18f
2:50am 9 15 mph 1004.4mb 18f
2:40am 5 16 mph 1004.4mb 18f
2:30am 7 16 mph 1004.4mb 18f
2:20am 7 17 mph 1004.4mb 18f
2:10am 6 17 mph 1004.4mb 18f
2:00am 8 16 mph 1004.1mb 18f
1:50am 8 17 mph 1004.1mb 19f
1:40am 8 17 mph 1004.1mb 18f
1:30am 5 11 mph 1004.1mb 18f
1:20am 8 17 mph 1004.1mb 18f
1:10am 6 14 mph 1003.7mb 18f
1:00am 6 17 mph 1003.7mb 18f
12:50am 34
mph
1003.4mb 18f
12:43am 5
mph
1003.7mb 18f
12:40am 8 20 mph 1003.7mb 18f
12:30am 9 20 mph 1003.4mb 18f
12:20am 5 10 mph 1003.4mb 18f
12:10am 7 15 mph 1003.4mb 18f
12:00am 5 11 mph 1003.4mb 19f
Wed 11/19 11:50pm 3 14 mph 1003.4mb 19f
11:40pm 6 15 mph 1003.4mb 19f
11:30pm 6 10 mph 1003mb 19f
11:20pm 7 13 mph 1002.7mb 19f
11:10pm 5 13 mph 1002.7mb 19f
11:00pm 5 9 mph 1002.7mb 19f
10:50pm 7 15 mph 1002.7mb 19f
10:40pm 6 10 mph 1002.7mb 19f
10:30pm 6 16 mph 1002.7mb 20f
10:20pm 5 9 mph 1002.7mb 21f
10:10pm 6 13 mph 1002.7mb 21f
10:00pm 8 15 mph 1002.7mb 22f
9:50pm 7 13 mph 1002.4mb 21f
9:40pm 7 15 mph 1002.4mb 21f
9:30pm 6 14 mph 1002.4mb 21f
9:20pm 7 16 mph 1002.4mb 21f
9:10pm 9 17 mph 1002.4mb 21f
9:00pm 8 14 mph 1002.4mb 20f
8:50pm 13 22 mph 1002.4mb 21f
8:40pm 13 23 mph 1002mb 21f
8:30pm 8 18 mph 1002mb 21f
8:20pm 11 25 mph 1002mb 22f
8:10pm 15 25 mph 1001.7mb 22f
8:00pm 9 22 mph 1002mb 22f
7:50pm 9 18 mph 1001.7mb 22f
7:40pm 7 17 mph 1002mb 22f
7:30pm 11 18 mph 1001.7mb 22f
7:20pm 6 16 mph 1001.7mb 22f
7:10pm 6 13 mph 1001.7mb 22f
7:00pm 7 14 mph 1001.4mb 22f
6:50pm 3 14 mph 1001.4mb 21f
6:40pm 5 14 mph 1001.4mb 21f
6:30pm 7 16 mph 1001.4mb 21f
6:20pm 7 17 mph 1001.4mb 21f
6:10pm 5 14 mph 1001.4mb 21f
6:00pm 6 10 mph 1001mb 21f
5:50pm 6 10 mph 1001mb 21f
5:40pm 6 14 mph 1001mb 21f
5:30pm 3 17 mph 1001mb 21f
5:20pm 5 13 mph 1000.7mb 21f
5:10pm 5 13 mph 1000.7mb 20f
5:00pm 6 13 mph 1000.3mb 20f
4:50pm 5 13 mph 1000.7mb 21f
4:40pm 5 13 mph 1000.3mb 21f
4:30pm 8 14 mph 1000.3mb 21f
4:20pm 6 14 mph 1000.3mb 21f
4:00pm 7 17 mph 1000.3mb 21f
3:50pm 6 16 mph 1000.3mb 21f
3:40pm 5 9 mph 1000.3mb 20f
3:30pm 3 10 mph 1000.3mb 20f
3:20pm 5 8 mph 1000.3mb 20f
3:10pm 3 10 mph 1000.3mb 20f
3:00pm 2 7 mph 1000.3mb 20f
2:50pm 3 8 mph 1000.3mb 20f
2:40pm 2 7 mph 1000.3mb 20f
2:30pm 3 8 mph 1000.3mb 20f
2:20pm  -  7 mph 1000.7mb 20f
2:10pm 1 9 mph 1000.7mb 20f
2:00pm 5 8 mph 1000.3mb 20f
1:50pm 5 7 mph 1000.7mb 21f
1:40pm 3 9 mph 1000.7mb 20f
1:30pm 2 7 mph 1000.7mb 20f
1:20pm 3 8 mph 1000.7mb 20f
1:10pm 5 9 mph 1000.7mb 20f
1:00pm 5 7 mph 1001mb 21f
12:50pm 5 8 mph 1001mb 20f